Weather History for Findlay, OH

Change the Weather History Date:

Friday, January 17, 2014

  Actual Average Record
Temperature  
Mean Temperature 20 °F -  
Max Temperature 32 °F 30 °F 62 °F (1952)
Min Temperature 9 °F 17 °F -17 °F (1977)
Degree Days  
Heating Degree Days 44    
Moisture  
Dew Point 18 °F    
Average Humidity 81    
Maximum Humidity 93    
Minimum Humidity 66    
Precipitation  
Precipitation 0.03 in - - ()
Sea Level Pressure  
Sea Level Pressure 29.81 in    
Wind  
Wind Speed 13 mph (SW)    
Max Wind Speed 23 mph    
Max Gust Speed 29 mph    
Visibility 6 miles    
Events Fog , Snow    
Averages and records for this station are not official NWS values.
T = Trace of Precipitation, MM = Missing Value Source: NWS Daily Summary

Daily Weather History Graph

Daily Weather History Graph

Search for Another Location

Airport:

Trip Planner

Search our weather history database for the weather conditions in past years. The results will help you decide how hot, cold, wet, or windy it might be!

Date:

Astronomy

Jan. 17, 2014 Rise Set
Actual Time 7:56 AM EST 5:33 PM EST
Civil Twilight 7:26 AM EST 6:03 PM EST
Nautical Twilight 6:52 AM EST 6:37 PM EST
Astronomical Twilight 6:19 AM EST 7:10 PM EST
Moon 7:20 PM EST 8:22 AM EST
Length of Visible Light 10h 37m
Length of Day
9h 37m
Full, 98% of the Moon is Illuminated
Jan 17
Full
Jan 24
Last Quarter
Jan 30
New
Feb 6
First Quarter
Feb 14
Full

Hourly Weather History & Observations

Time (EST) Temp. Windchill Dew Point Humidity Pressure Visibility Wind Dir Wind Speed Gust Speed Precip Events Conditions
12:21 AM 30.2 °F 18.5 °F 24.8 °F 80% 29.67 in 10.0 mi SSW 17.3 mph - N/A   Overcast
12:53 AM 28.9 °F 18.2 °F 23.0 °F 78% 29.69 in 10.0 mi SW 13.8 mph - N/A   Mostly Cloudy
1:53 AM 28.9 °F 16.1 °F 19.9 °F 69% 29.70 in 10.0 mi SW 19.6 mph 25.3 mph N/A   Partly Cloudy
2:53 AM 27.0 °F 15.2 °F 18.0 °F 69% 29.73 in 10.0 mi SW 15.0 mph - N/A   Overcast
3:53 AM 26.1 °F 15.0 °F 16.0 °F 66% 29.74 in 10.0 mi SSW 12.7 mph - N/A   Clear
4:53 AM 23.0 °F 12.4 °F 17.1 °F 78% 29.75 in 10.0 mi SSW 10.4 mph - N/A   Mostly Cloudy
5:17 AM 26.6 °F 18.2 °F 19.4 °F 74% 29.73 in 10.0 mi South 8.1 mph - N/A   Overcast
5:53 AM 25.0 °F 17.1 °F 19.9 °F 81% 29.75 in 10.0 mi SSE 6.9 mph - N/A   Overcast
6:53 AM 26.1 °F 19.4 °F 21.9 °F 84% 29.75 in 10.0 mi SSE 5.8 mph - N/A   Overcast
8:53 AM 28.9 °F 21.9 °F 26.1 °F 89% 29.76 in 6.0 mi South 6.9 mph - N/A   Overcast
9:24 AM 30.2 °F 23.4 °F 26.6 °F 86% 29.76 in 5.0 mi South 6.9 mph - N/A   Overcast
9:53 AM 30.9 °F 24.3 °F 28.0 °F 89% 29.78 in 6.0 mi South 6.9 mph - N/A   Overcast
10:53 AM 32.0 °F 26.4 °F 28.9 °F 88% 29.78 in 6.0 mi SSW 5.8 mph - N/A   Overcast
11:37 AM 32.0 °F 27.5 °F 28.4 °F 87% 29.75 in 2.0 mi SSW 4.6 mph - 0.00 in Snow Light Snow
11:48 AM 32.0 °F 27.5 °F 28.4 °F 87% 29.75 in 1.8 mi South 4.6 mph - 0.00 in Snow Light Snow
11:53 AM 32.0 °F 27.5 °F 28.9 °F 88% 29.76 in 2.0 mi SSW 4.6 mph - 0.00 in Snow Light Snow
12:01 PM 32.0 °F 27.5 °F 28.4 °F 87% 29.75 in 2.0 mi SSW 4.6 mph - 0.00 in Snow Light Snow
12:14 PM 32.0 °F 27.5 °F 28.4 °F 87% 29.75 in 1.2 mi West 4.6 mph - 0.00 in Snow Light Snow
12:22 PM 32.0 °F 27.5 °F 28.4 °F 87% 29.75 in 0.8 mi WSW 4.6 mph - 0.01 in Snow Light Snow
12:41 PM 30.2 °F 23.4 °F 28.4 °F 93% 29.74 in 0.5 mi WNW 6.9 mph - 0.02 in Fog , Snow Snow
12:53 PM 26.1 °F 13.6 °F 23.0 °F 88% 29.77 in 0.5 mi WNW 16.1 mph - 0.02 in Fog , Snow Snow
1:01 PM 24.8 °F 10.7 °F 21.2 °F 86% 29.75 in 0.8 mi West 19.6 mph - 0.00 in Snow Light Snow
1:09 PM 24.8 °F 12.9 °F 21.2 °F 86% 29.75 in 1.0 mi WNW 13.8 mph 23.0 mph 0.00 in Snow Light Snow
1:17 PM 24.8 °F 12.9 °F 21.2 °F 86% 29.76 in 0.8 mi West 13.8 mph - 0.00 in Snow Light Snow
1:53 PM 24.1 °F 11.0 °F 21.0 °F 88% 29.78 in 0.5 mi West 16.1 mph - 0.01 in Fog , Snow Snow
2:43 PM 23.0 °F 9.6 °F 19.4 °F 86% 29.78 in 0.8 mi West 16.1 mph - 0.00 in Snow Light Snow
2:50 PM 23.0 °F 8.7 °F 19.4 °F 86% 29.78 in 0.8 mi West 18.4 mph - 0.00 in Snow Light Snow
2:53 PM 23.0 °F 8.7 °F 19.0 °F 85% 29.81 in 0.8 mi West 18.4 mph - 0.00 in Snow Light Snow
3:04 PM 21.2 °F 6.4 °F 19.4 °F 93% 29.79 in 1.2 mi West 18.4 mph - 0.00 in Snow Light Snow
3:39 PM 21.2 °F 6.0 °F 15.8 °F 80% 29.82 in 2.0 mi West 19.6 mph - 0.00 in Snow Light Snow
3:48 PM 19.4 °F 3.2 °F 15.8 °F 86% 29.82 in 3.0 mi West 20.7 mph - 0.00 in Snow Light Snow
3:53 PM 19.9 °F 3.9 °F 16.0 °F 85% 29.85 in 3.0 mi West 20.7 mph - 0.00 in Snow Light Snow
4:08 PM 19.4 °F 2.8 °F 15.8 °F 86% 29.84 in 3.0 mi West 21.9 mph 28.8 mph 0.00 in Snow Light Snow
4:23 PM 19.4 °F 3.2 °F 14.0 °F 80% 29.85 in 2.0 mi WSW 20.7 mph 27.6 mph 0.00 in Snow Light Snow
4:32 PM 19.4 °F 4.1 °F 14.0 °F 80% 29.85 in 3.0 mi WSW 18.4 mph 27.6 mph 0.00 in Snow Light Snow
4:53 PM 18.0 °F 1.3 °F 12.9 °F 81% 29.89 in 7.0 mi WSW 20.7 mph 25.3 mph 0.00 in   Overcast
5:53 PM 14.0 °F -3.9 °F 8.1 °F 77% 29.94 in 9.0 mi WSW 20.7 mph 28.8 mph 0.00 in   Overcast
6:02 PM 14.0 °F -4.7 °F 6.8 °F 73% 29.91 in 10.0 mi WSW 23.0 mph 28.8 mph N/A   Overcast
6:28 PM 12.2 °F -5.3 °F 5.0 °F 73% 29.93 in 10.0 mi WSW 18.4 mph 25.3 mph N/A   Mostly Cloudy
6:53 PM 12.9 °F -4.4 °F 5.0 °F 71% 29.97 in 10.0 mi WSW 18.4 mph 25.3 mph N/A   Overcast
7:53 PM 12.0 °F -3.4 °F 3.9 °F 70% 29.99 in 10.0 mi WSW 13.8 mph - N/A   Overcast
8:53 PM 10.9 °F -4.7 °F 3.0 °F 70% 29.99 in 10.0 mi WSW 13.8 mph - N/A   Overcast
9:38 PM 10.4 °F -4.8 °F 3.2 °F 73% 29.97 in 10.0 mi WSW 12.7 mph - N/A   Overcast
9:53 PM 10.0 °F -6.5 °F 3.0 °F 73% 30.00 in 10.0 mi WSW 15.0 mph - N/A   Overcast
10:53 PM 9.0 °F -6.6 °F 3.0 °F 77% 30.01 in 10.0 mi WSW 12.7 mph - N/A   Overcast
11:53 PM 9.0 °F -6.6 °F 1.9 °F 73% 30.00 in 10.0 mi SW 12.7 mph - N/A   Overcast